Regional Weather Roundup
Issued by NWS Bismarck, ND

Home | Current Version | Previous Version | Text Only | Print | Product List | Glossary On
Versions: 1 2 3 4 5 6 7 8 9 10 11 12 13 14 15 16 17 18 19 20 21 22 23 24 25 26 27 28 29 30 31 32 33 34 35 36 37 38 39 40 41 42 43 44 45 46 47 48 49 50
000
ASUS43 KBIS 190420
RWRBIS

NWR BROADCAST TEXT
NATIONAL WEATHER SERVICE BISMARCK ND
1100 PM CDT SAT APR 18 2015

NOTE: "FAIR" INDICATES FEW OR NO CLOUDS BELOW 12,000 FEET WITH NO
SIGNIFICANT WEATHER AND/OR OBSTRUCTIONS TO VISIBILITY.


CITY           SKY/WX    TMP DP  RH WIND       PRES   REMARKS
WILLISTON      PTCLDY    47  27  45 NW16      30.03R
MINOT          LGT RAIN  49  43  80 W9        29.93S
MINOT AFB      DRIZZLE   48  48  99 W12       29.92R
BISMARCK       LGT RAIN  48  45  89 W6        29.92F
DICKINSON      CLOUDY    46  36  68 NW12      29.97S
GARRISON         N/A     48  46  93 NW13      29.94R
HETTINGER ARPT LGT RAIN  47  44  90 N14       29.99R
JAMESTOWN      CLOUDY    55  38  52 NW16      29.82F
BEACH          MOCLDY    45  27  49 NW18G24   30.05R
CARRINGTON     MOCLDY    52  39  62 SW8       29.89S
CROSBY         FAIR      39  27  60 NW12      30.01S
HARVEY           N/A    N/A N/A N/A MISG        N/A
HAZEN          CLOUDY    46  45  93 NW12      29.96S
LINTON         LGT RAIN  46  46 100 SE7       29.90F
MANDAN         LGT RAIN  46  46 100 W9        29.93S
OAKES            N/A     57  39  51 SW14      29.80S
RUGBY            N/A    N/A N/A N/A MISG        N/A
STANLEY        CLOUDY    46  32  57 NW22G32   29.98S
TIOGA          FAIR      45  28  53 NW17G24   30.03S
WATFORD CITY   FAIR      46  27  46 N20G29    30.01R
$$

CITY           SKY/WX    TMP DP  RH WIND       PRES   REMARKS
GRAND FORKS    CLOUDY    55  33  43 W8        29.82F
GRAND FORKS AF CLEAR     59  29  31 SW13      29.82F
DEVILS LAKE    CLOUDY    54  36  50 SW18      29.84F
FARGO          CLOUDY    64  32  30 SE13      29.81F
CANDO          FAIR      54  34  47 W12       29.83F
CAVALIER       FAIR      54  32  43 S6        29.81F
GRAFTON        FAIR      54  28  37 E5        29.82F
GWINNER          N/A     57  54  88 S13       29.83R
LANGDON        FAIR      52  32  46 W8        29.83F
ROLLA          MOCLDY    48  37  66 NW12      29.87S
WALHALLA       CLOUDY    59  30  33 SW13      29.81F
$$

CITY           SKY/WX    TMP DP  RH WIND       PRES   REMARKS
ABERDEEN       CLOUDY    52  50  93 SW7       29.81F
MOBRIDGE       LGT RAIN  49  46  90 N16       29.85F
BUFFALO          N/A     47  34  60 N17       29.95R
RAPID CITY     LGT RAIN  45  42  89 N24G33    29.95F
GLASGOW        CLEAR     43  19  38 NW13      30.13R
SIDNEY         PTCLDY    46  27  46 NW8       30.06S
WOLF POINT     CLEAR     43  22  43 NW13      30.11R
GLENDIVE       MOCLDY    41  21  45 NW12      30.09S
MILES CITY     PTCLDY    42  21  43 NW10      30.13R
BAKER          MOCLDY    47  27  45 NW14      30.06R
$$

CITY           SKY/WX    TMP DP  RH WIND       PRES   REMARKS
BILLINGS       PTCLDY    41  27  57 N12       30.23R
GREAT FALLS    CLOUDY    41  30  65 N3        30.27R
REGINA         MOCLDY    43  30  61 W12       30.00F
ESTEVAN        MOCLDY    41  30  65 NW12      29.99R
$$



USA.gov is the U.S. government's official web portal to all federal, state and local government web resources and services.